Location: Deerlick Astronomy Village
(33.5614°N, 82.7631°W)
Time: 19:24:20
(UTC-05:00)

CAS-4A - Pass Details

Date: 30 October 2020
Orbit: 528 x 543 km, 43.0° (Epoch: 30 November)

Event Time Altitude Azimuth Distance (km) Brightness Sun altitude
Exits shadow 05:07:08 11° 47° (NE) 1,726 ? -34.1°
Drops below altitude 10° 05:07:19 10° 49° (NE) 1,776 ? -34.1°
Sets 05:09:58 0° 65° (ENE) 2,663 ? -33.5°
